Great Falls, MT

12:38 AM MST on February 23, 2017 (GMT -0700)
Great Falls International

Weather History for KGTF - July, 2012

Change the Weather History Date:

Saturday, July 14, 2012

  Actual Average Record
Temperature  
Mean Temperature 73 °F 67 °F  
Max Temperature 82 °F 84 °F 101 °F (2002)
Min Temperature 63 °F 51 °F 41 °F (1912)
Degree Days  
Heating Degree Days 0 2  
Month to date heating degree days 4 33  
Since 1 June heating degree days 136 224  
Since 1 July heating degree days 4 33  
Cooling Degree Days 8 4  
Month to date cooling degree days 112 44  
Year to date cooling degree days 146 83  
Since 1 June cooling degree days 141 76  
Growing Degree Days 22 (Base 50)    
Moisture  
Dew Point 61 °F    
Average Humidity 68    
Maximum Humidity 87    
Minimum Humidity 48    
Precipitation  
Precipitation 1.09 in 0.05 in 1.34 in (1927)
Month to date precipitation 1.65 0.80  
Year to date precipitation 9.06 9.06  
Snow  
Snow 0.00 in 0.00 in 0.00 in (2002)
Month to date snowfall 0.0 0.0  
Since 1 June snowfall 0.0 0.3  
Since 1 July snowfall 0.0 0.0  
Snow Depth 0.00 in    
Sea Level Pressure  
Sea Level Pressure 29.91 in    
Wind  
Wind Speed 6 mph (WNW)    
Max Wind Speed 29 mph    
Max Gust Speed 36 mph    
Visibility 9 miles    
Events Rain    
T = Trace of Precipitation, MM = Missing Value Source: NWS Daily Summary

Daily Weather History Graph

Daily Weather History Graph

Search for Another Location

Airport or City:

Trip Planner

Search our weather history database for the weather conditions in past years. The results will help you decide how hot, cold, wet, or windy it might be!

Date:

Astronomy

Jul. 14, 2012 Rise Set
Actual Time 5:43 AM MDT 9:18 PM MDT
Civil Twilight 5:04 AM MDT 9:57 PM MDT
Nautical Twilight 4:12 AM MDT 10:49 PM MDT
Astronomical Twilight 3:01 AM MDT 11:59 PM MDT
Moon 2:02 AM MDT (7/14) 5:46 PM MDT (7/14)
Length of Visible Light 16h 52m
Length of Day
15h 35m
Waning Crescent, 18% of the Moon is Illuminated
Jul 14
Waning Crescent
Jul 18
New
Jul 26
First Quarter
Aug 1
Full
Aug 9
Last Quarter

Hourly Weather History & Observations

Time (MDT) Temp. Heat Index Dew Point Humidity Pressure Visibility Wind Dir Wind Speed Gust Speed Precip Events Conditions
12:53 AM 66.9 °F - 59.0 °F 76% 29.92 in 10.0 mi NW 11.5 mph 20.7 mph 0.00 in   Mostly Cloudy
1:53 AM 66.9 °F - 60.1 °F 79% 29.96 in 10.0 mi SW 8.1 mph - N/A   Overcast
2:53 AM 70.0 °F - 61.0 °F 73% 29.92 in 10.0 mi WNW 5.8 mph - 0.00 in   Mostly Cloudy
3:53 AM 66.2 °F - 60.8 °F 83% 30.03 in 10.0 mi SSW 5.8 mph - N/A   Clear
4:53 AM 64.9 °F - 60.1 °F 84% 29.91 in 10.0 mi WSW 6.9 mph - 0.00 in   Overcast
5:53 AM 64.4 °F - 60.8 °F 88% 30.01 in 10.0 mi WSW 3.5 mph - N/A   Overcast
6:53 AM 64.9 °F - 60.1 °F 84% 29.92 in 10.0 mi Calm Calm - N/A   Mostly Cloudy
7:53 AM 66.0 °F - 60.1 °F 81% 29.93 in 10.0 mi West 4.6 mph - N/A   Overcast
8:53 AM 66.0 °F - 61.0 °F 84% 29.93 in 10.0 mi WNW 5.8 mph - 0.00 in   Overcast
9:53 AM 66.9 °F - 63.0 °F 87% 29.93 in 7.0 mi NW 6.9 mph - 0.00 in Rain Light Rain
10:53 AM 68.0 °F - 63.0 °F 84% 29.92 in 8.0 mi NNW 5.8 mph - 0.01 in Rain Light Rain
11:05 AM 69.8 °F - 64.4 °F 83% 30.01 in 7.0 mi NNW 3.5 mph - N/A   Overcast
11:26 AM 69.8 °F - 64.4 °F 83% 30.01 in 7.0 mi North 3.5 mph - N/A   Overcast
11:53 AM 70.0 °F - 63.0 °F 78% 29.91 in 7.0 mi Calm Calm - N/A   Overcast
12:38 PM 71.6 °F - 62.6 °F 73% 29.99 in 8.0 mi South 6.9 mph - N/A   Overcast
12:53 PM 70.0 °F - 63.0 °F 78% 29.91 in 8.0 mi SSW 5.8 mph - N/A   Overcast
1:16 PM 71.6 °F - 62.6 °F 73% 29.98 in 8.0 mi SW 4.6 mph - N/A   Overcast
1:40 PM 73.4 °F - 62.6 °F 69% 29.98 in 8.0 mi SW 5.8 mph - N/A   Overcast
1:53 PM 73.0 °F - 63.0 °F 71% 29.89 in 9.0 mi Variable 3.5 mph - N/A   Overcast
2:53 PM 77.0 °F - 60.1 °F 56% 29.86 in 10.0 mi SW 9.2 mph - N/A   Partly Cloudy
3:53 PM 80.1 °F 81.1 °F 61.0 °F 52% 29.84 in 10.0 mi West 5.8 mph - N/A   Scattered Clouds
4:53 PM 81.0 °F 81.7 °F 61.0 °F 50% 29.83 in 10.0 mi Variable 4.6 mph - N/A   Mostly Cloudy
5:53 PM 81.0 °F 81.6 °F 60.1 °F 49% 29.81 in 10.0 mi NNW 5.8 mph - N/A   Clear
6:53 PM 81.0 °F 81.3 °F 59.0 °F 47% 29.79 in 10.0 mi NNW 5.8 mph - N/A   Mostly Cloudy
7:53 PM 78.1 °F - 57.9 °F 50% 29.79 in 10.0 mi NW 4.6 mph - N/A   Mostly Cloudy
8:53 PM 75.0 °F - 60.1 °F 60% 29.79 in 10.0 mi North 5.8 mph - N/A   Mostly Cloudy
9:53 PM 71.1 °F - 60.1 °F 68% 29.81 in 10.0 mi North 6.9 mph - N/A   Clear
10:53 PM 70.0 °F - 60.1 °F 71% 29.80 in 10.0 mi North 8.1 mph - N/A   Clear
11:53 PM 69.8 °F - 60.8 °F 73% 29.87 in 10.0 mi NNW 3.5 mph - N/A   Scattered Clouds